Location: Unspecified
(50.7693°N, 0.0000°E)
Time: 07:11:10
(UTC+00:00)

Transit 2A - Pass Details

Date: 19 August 2020
Orbit: 591 x 967 km, 66.7° (Epoch: 20 September)

Event Time Altitude Azimuth Distance (km) Brightness Sun altitude
Rises 02:37:06 0° 321° (NW) 3,666 9.7 -18.3°
Reaches altitude 10° 02:39:44 10° 319° (NW) 2,708 8.9 -18.0°
Maximum altitude 02:46:04 70° 238° (WSW) 995 6.3 -17.4°
Drops below altitude 10° 02:52:00 10° 156° (SSE) 2,542 8.5 -16.8°
Sets 02:54:24 0° 154° (SSE) 3,427 9.2 -16.5°
